Time,TemperatureC,DewpointC,PressurehPa,WindDirection,WindDirectionDegrees,WindSpeedKMH,WindSpeedGustKMH,Humidity,HourlyPrecipMM,Conditions,Clouds,dailyrainMM,SolarRadiationWatts/m^2,UVIndex,SoftwareType,DateUTC
2026-09-04 00:04:55,15.7,8.5,999.2,NW,323,0.5,3.7,62.3,0.0,,,0.0,0,0,n/a,2026-09-03T12:04:55Z
2026-09-04 00:09:59,15.4,8.4,999.0,NW,310,2.6,6.4,63,0.0,,,0.0,0,0,n/a,2026-09-03T12:09:59Z
2026-09-04 00:14:57,15.4,8.4,999.0,NW,318,4.8,14.8,63,0.0,,,0.0,0,0,n/a,2026-09-03T12:14:57Z
2026-09-04 00:19:55,15.7,8.4,999.0,NW,318,5.9,16.7,62,0.0,,,0.0,0,0,n/a,2026-09-03T12:19:55Z
2026-09-04 00:24:58,16.1,8.5,998.9,NW,316,5.9,13,60.8,0.0,,,0.0,0,0,n/a,2026-09-03T12:24:58Z
2026-09-04 00:29:58,16.3,8.5,998.8,NNW,338,2.7,9.3,60,0.0,,,0.0,0,0,n/a,2026-09-03T12:29:58Z
2026-09-04 00:34:55,16.3,8.6,998.7,NNW,343,1.5,5.6,60,0.0,,,0.0,0,0,n/a,2026-09-03T12:34:55Z
2026-09-04 00:39:57,16.2,8.5,998.7,NNE,13,1.1,5.6,60.4,0.0,,,0.0,0,0,n/a,2026-09-03T12:39:57Z
2026-09-04 00:44:56,16.1,8.6,998.7,NNW,328,3.9,13,61,0.0,,,0.0,0,0,n/a,2026-09-03T12:44:56Z
2026-09-04 00:49:56,16.2,8.6,998.5,NW,308,6.3,17.7,60.7,0.0,,,0.0,0,0,n/a,2026-09-03T12:49:56Z
2026-09-04 00:54:56,16.3,8.6,998.5,NW,310,5.1,18.5,60,0.0,,,0.0,0,0,n/a,2026-09-03T12:54:56Z
2026-09-04 00:59:56,16.4,8.6,998.4,NW,326,4.8,13,60,0.0,,,0.0,0,0,n/a,2026-09-03T12:59:56Z
2026-09-04 01:04:55,16.4,8.6,998.3,NW,319,4.1,12.9,60,0.0,,,0.0,0,0,n/a,2026-09-03T13:04:55Z
2026-09-04 01:09:57,16.5,8.6,998.3,NW,310,8,16.7,59.8,0.0,,,0.0,0,0,n/a,2026-09-03T13:09:57Z
2026-09-04 01:14:57,16.6,8.6,998.2,NW,323,7.2,14.8,59,0.0,,,0.0,0,0,n/a,2026-09-03T13:14:57Z
2026-09-04 01:19:56,16.8,8.6,998.0,NNW,338,6.1,14.8,58.5,0.0,,,0.0,0,0,n/a,2026-09-03T13:19:56Z
2026-09-04 01:24:59,16.8,8.5,998.0,NW,310,4.8,13,58,0.0,,,0.0,0,0,n/a,2026-09-03T13:24:59Z
2026-09-04 01:29:58,16.8,8.5,997.8,NW,305,4.7,11.3,58,0.0,,,0.0,0,0,n/a,2026-09-03T13:29:58Z
2026-09-04 01:34:56,16.7,8.4,997.8,WNW,295,6.3,13,58.2,0.0,,,0.0,0,0,n/a,2026-09-03T13:34:56Z
2026-09-04 01:39:57,16.7,8.3,997.5,NW,308,6.3,13,58,0.0,,,0.0,0,0,n/a,2026-09-03T13:39:57Z
2026-09-04 01:44:57,16.8,8.3,997.3,WNW,299,8.9,19.3,57.3,0.0,,,0.0,0,0,n/a,2026-09-03T13:44:57Z
2026-09-04 01:49:57,16.9,8.3,997.3,NNW,344,5.8,11.3,56.9,0.0,,,0.0,0,0,n/a,2026-09-03T13:49:57Z
2026-09-04 01:54:55,16.9,8.1,997.2,NW,318,4.7,13,56,0.0,,,0.0,0,0,n/a,2026-09-03T13:54:55Z
2026-09-04 01:59:55,16.9,8.1,997.0,North,349,2.6,8,56,0.0,,,0.0,0,0,n/a,2026-09-03T13:59:55Z
2026-09-04 02:04:57,16.9,8.1,996.9,NW,310,5.7,14.8,56.1,0.0,,,0.0,0,0,n/a,2026-09-03T14:04:57Z
2026-09-04 02:09:58,16.9,8.2,996.7,NNE,30,5.5,14.8,56.3,0.0,,,0.0,0,0,n/a,2026-09-03T14:09:58Z
2026-09-04 02:14:57,16.9,8.1,996.4,NE,43,5,14.8,56,0.0,,,0.0,0,0,n/a,2026-09-03T14:14:57Z
2026-09-04 02:19:55,17,8.3,996.3,ENE,71,4.5,13,56.5,0.0,,,0.0,0,0,n/a,2026-09-03T14:19:55Z
2026-09-04 02:24:56,16.9,8.4,995.9,NNW,329,4.4,11.3,57,0.0,,,0.0,0,0,n/a,2026-09-03T14:24:56Z
2026-09-04 02:29:54,16.8,8.3,995.7,NW,320,4.3,8,57.3,0.0,,,0.0,0,0,n/a,2026-09-03T14:29:54Z
2026-09-04 02:34:58,16.7,8.4,995.1,ENE,64,4.2,11.3,58,0.0,,,0.0,0,0,n/a,2026-09-03T14:34:58Z
2026-09-04 02:39:58,16.7,8.3,995.1,ENE,71,3.6,11.3,58,0.0,,,0.0,0,0,n/a,2026-09-03T14:39:58Z
2026-09-04 02:44:58,16.6,8.5,995.2,NE,34,1.4,4.8,58.7,0.0,,,0.0,0,0,n/a,2026-09-03T14:44:58Z
2026-09-04 02:49:56,16.4,8.5,995.1,NE,52,1,5.6,59.4,0.0,,,0.0,0,0,n/a,2026-09-03T14:49:56Z
2026-09-04 02:54:58,16.2,8.5,994.9,NNE,13,2.2,9.7,60.2,0.0,,,0.0,0,0,n/a,2026-09-03T14:54:58Z
2026-09-04 02:59:55,16.2,8.4,994.6,NW,311,9.5,24.1,60,0.0,,,0.0,0,0,n/a,2026-09-03T14:59:55Z
2026-09-04 03:04:54,16.7,8.5,994.5,NW,306,13.8,25.9,58.4,0.0,,,0.0,0,0,n/a,2026-09-03T15:04:54Z
2026-09-04 03:09:57,17.1,8.5,994.6,NW,310,10.5,18.5,56.9,0.0,,,0.0,0,0,n/a,2026-09-03T15:09:57Z
2026-09-04 03:14:55,17.3,8.4,994.6,NW,311,10.3,18.5,56,0.0,,,0.0,0,0,n/a,2026-09-03T15:14:55Z
2026-09-04 03:19:55,17.4,8.5,994.5,NW,305,6.9,16.7,56,0.0,,,0.0,0,0,n/a,2026-09-03T15:19:55Z
2026-09-04 03:24:56,17.4,8.3,994.6,WNW,303,9,19.3,55.2,0.0,,,0.0,0,0,n/a,2026-09-03T15:24:56Z
2026-09-04 03:29:55,17.6,8.4,994.6,NW,316,7,14.8,55,0.0,,,0.0,0,0,n/a,2026-09-03T15:29:55Z
2026-09-04 03:34:55,17.7,8.4,994.3,NNW,333,4.1,13,54.8,0.0,,,0.0,0,0,n/a,2026-09-03T15:34:55Z
2026-09-04 03:39:56,17.7,8.5,994.1,North,8,4.1,8,55,0.0,,,0.0,0,0,n/a,2026-09-03T15:39:56Z
2026-09-04 03:44:55,17.6,8.4,993.9,NNW,333,2.3,8,55,0.0,,,0.0,0,0,n/a,2026-09-03T15:44:55Z
2026-09-04 03:49:59,17.5,8.6,993.8,NW,319,7.4,16.7,55.9,0.0,,,0.0,0,0,n/a,2026-09-03T15:49:59Z
2026-09-04 03:54:59,17.5,8.4,994.0,WNW,302,12.6,24.1,55.4,0.0,,,0.0,0,0,n/a,2026-09-03T15:54:59Z
2026-09-04 03:59:59,17.7,8.4,993.7,NW,312,12.1,19.3,54.6,0.0,,,0.0,0,0,n/a,2026-09-03T15:59:59Z
2026-09-04 04:04:59,17.9,8.4,993.2,NW,309,12.6,25.9,54,0.0,,,0.0,0,0,n/a,2026-09-03T16:04:59Z
2026-09-04 04:09:54,18,8.5,993.0,NW,317,12.8,25.9,54,0.0,,,0.0,0,0,n/a,2026-09-03T16:09:54Z
2026-09-04 04:14:56,18,8.4,992.6,NNW,330,10.4,24.1,53.6,0.0,,,0.0,0,0,n/a,2026-09-03T16:14:56Z
2026-09-04 04:19:56,17.8,8.5,992.3,NW,323,13.5,32.2,54.4,0.0,,,0.0,0,0,n/a,2026-09-03T16:19:56Z
2026-09-04 04:24:57,17.6,8.8,992.0,NW,320,12.2,24.1,56.2,0.0,,,0.0,0,0,n/a,2026-09-03T16:24:57Z
2026-09-04 04:29:54,17.4,8.9,991.7,NNW,329,13.7,25.7,57.4,0.0,,,0.0,0,0,n/a,2026-09-03T16:29:54Z
2026-09-04 04:34:54,17.2,9,991.7,NW,322,13.3,25.9,58.4,0.0,,,0.0,0,0,n/a,2026-09-03T16:34:54Z
2026-09-04 04:39:57,17.1,9.1,991.7,NW,315,12.9,25.9,59.3,0.0,,,0.0,0,0,n/a,2026-09-03T16:39:57Z
2026-09-04 04:44:57,17.1,9.2,991.6,NW,309,16.5,29.6,60,0.0,,,0.0,0,0,n/a,2026-09-03T16:44:57Z
2026-09-04 04:49:56,17.1,9.5,991.5,NW,311,17.2,29.6,61,0.0,,,0.0,0,0,n/a,2026-09-03T16:49:56Z
2026-09-04 04:54:55,17,9.7,991.1,NW,311,15.4,27.8,61.9,0.0,,,0.0,0,0,n/a,2026-09-03T16:54:55Z
2026-09-04 04:59:55,17,9.7,991.5,WNW,302,18.5,33.8,62,0.0,,,0.0,0,0,n/a,2026-09-03T16:59:55Z
2026-09-04 05:04:56,17,9.7,991.4,NW,309,19,32.2,62.2,0.0,,,0.0,0,0,n/a,2026-09-03T17:04:56Z
2026-09-04 05:09:59,17,9.8,991.3,NW,309,17.6,33.8,63,0.0,,,0.0,0,0,n/a,2026-09-03T17:09:59Z
2026-09-04 05:14:54,16.9,9.8,991.0,NW,312,16.6,29.6,62.7,0.0,,,0.0,0,0,n/a,2026-09-03T17:14:54Z
2026-09-04 05:19:54,16.9,9.6,990.5,NW,312,13.5,24.1,62,0.0,,,0.0,0,0,n/a,2026-09-03T17:19:54Z
2026-09-04 05:24:56,16.9,9.5,990.2,NW,312,14.1,29,61.6,0.0,,,0.0,0,0,n/a,2026-09-03T17:24:56Z
2026-09-04 05:29:55,17,9.5,990.0,NW,312,16.7,29.6,61,0.0,,,0.0,0,0,n/a,2026-09-03T17:29:55Z
2026-09-04 05:34:55,17.1,9.3,990.5,NW,313,17.7,33.8,60.3,0.0,,,0.0,0,0,n/a,2026-09-03T17:34:55Z
2026-09-04 05:39:57,17.1,9.5,991.1,NW,305,15.2,27.8,60.9,0.0,,,0.0,0,0,n/a,2026-09-03T17:39:57Z
2026-09-04 05:44:57,17,9.5,991.2,WNW,303,16,29.6,61.5,0.0,,,0.0,0,0,n/a,2026-09-03T17:44:57Z
2026-09-04 05:49:57,16.9,9.6,991.3,WNW,300,12.8,19.3,62,0.0,,,0.0,0,0,n/a,2026-09-03T17:49:57Z
2026-09-04 05:54:57,17,9.7,991.2,NW,315,10.3,20.9,62,0.0,,,0.0,0,0,n/a,2026-09-03T17:54:57Z
2026-09-04 05:59:56,17,9.7,990.2,NW,324,10,20.9,62,0.0,,,0.0,0,0,n/a,2026-09-03T17:59:56Z
2026-09-04 06:04:55,17,9.6,990.5,NW,312,12.6,22.5,62,0.0,,,0.0,0,0,n/a,2026-09-03T18:04:55Z
2026-09-04 06:09:57,17,9.6,990.7,NW,321,11.5,22.5,62,0.0,,,0.0,0,0,n/a,2026-09-03T18:09:57Z
2026-09-04 06:14:56,17,9.7,990.4,NW,313,11.7,22.2,62,0.0,,,0.0,0,0,n/a,2026-09-03T18:14:56Z
2026-09-04 06:19:59,17,9.7,990.5,NW,317,7.3,14.8,62,0.0,,,0.0,0,0,n/a,2026-09-03T18:19:59Z
2026-09-04 06:24:54,16.9,9.6,990.7,North,8,6.6,16.7,62,0.0,,,0.0,0,0,n/a,2026-09-03T18:24:54Z
2026-09-04 06:29:54,16.9,9.7,990.5,NNE,29,5.5,14.5,62.8,0.0,,,0.0,0,0,n/a,2026-09-03T18:29:54Z
2026-09-04 06:34:56,16.6,9.8,990.0,NE,43,7.3,14.8,64.1,0.0,,,0.0,0,0,n/a,2026-09-03T18:34:56Z
2026-09-04 06:39:58,16.5,9.8,989.7,NW,322,6,16.1,64.5,0.0,,,0.0,0,0,n/a,2026-09-03T18:39:58Z
2026-09-04 06:44:58,16.6,9.6,989.0,NNW,348,8.9,20.9,63.4,0.0,,,0.0,0,0,n/a,2026-09-03T18:44:58Z
2026-09-04 06:49:57,16.7,9.7,989.0,North,350,6,20.4,63,0.0,,,0.0,0,0,n/a,2026-09-03T18:49:57Z
2026-09-04 06:54:58,16.7,9.7,988.6,North,350,8.5,20.9,63.2,0.0,,,0.0,0,0,n/a,2026-09-03T18:54:58Z
2026-09-04 06:59:58,16.6,9.9,989.1,NNE,17,4.1,11.3,64.3,0.0,,,0.0,5,0,n/a,2026-09-03T18:59:58Z
2026-09-04 07:04:58,16.4,9.8,989.5,NW,316,7.5,16.7,65,0.0,,,0.0,5,0,n/a,2026-09-03T19:04:58Z
2026-09-04 07:09:56,16.5,9.7,989.7,WNW,302,14.2,25.7,64.3,0.0,,,0.0,5,0,n/a,2026-09-03T19:09:56Z
2026-09-04 07:14:56,16.6,9.6,989.6,WNW,300,13.7,25.9,63.4,0.0,,,0.0,0,0,n/a,2026-09-03T19:14:56Z
2026-09-04 07:19:55,16.7,9.6,989.4,WNW,303,10.6,25.9,63,0.0,,,0.0,0,0,n/a,2026-09-03T19:19:55Z
2026-09-04 07:24:53,16.6,9.6,989.1,NW,304,9.5,22.5,63,0.0,,,0.0,32,0,n/a,2026-09-03T19:24:53Z
2026-09-04 07:29:54,16.6,9.8,988.8,WNW,286,12.8,27.4,64.1,0.0,,,0.0,39,0,n/a,2026-09-03T19:29:54Z
2026-09-04 07:34:59,16.5,9.9,988.5,WNW,295,15.8,29.6,65.2,0.0,,,0.0,37,0,n/a,2026-09-03T19:34:59Z
2026-09-04 07:39:59,16.4,10,988.6,WNW,294,14.1,29.6,66,0.0,,,0.0,62,0,n/a,2026-09-03T19:39:59Z
2026-09-04 07:44:59,16.3,10,988.8,WNW,291,13.5,31.5,66.6,0.0,,,0.0,69,0,n/a,2026-09-03T19:44:59Z
2026-09-04 07:49:59,16.2,10.1,989.2,WNW,296,11.1,31.5,67.1,0.0,,,0.0,42,0,n/a,2026-09-03T19:49:59Z
2026-09-04 07:54:58,16,10.2,989.2,WNW,299,9.9,18.5,68.2,0.0,,,0.0,40,0,n/a,2026-09-03T19:54:58Z
2026-09-04 07:59:58,15.8,10.1,989.3,WNW,298,9.7,19.3,69,0.0,,,0.0,128,0,n/a,2026-09-03T19:59:58Z
2026-09-04 08:04:58,15.8,10.2,989.4,WNW,298,5.4,18.5,69,0.0,,,0.0,151,0,n/a,2026-09-03T20:04:58Z
2026-09-04 08:09:56,16,10.2,989.6,WNW,298,10.6,20.9,68.2,0.0,,,0.0,178,0,n/a,2026-09-03T20:09:56Z
2026-09-04 08:14:56,16.4,10,989.5,WNW,290,8.6,22.5,66.2,0.0,,,0.0,197,0,n/a,2026-09-03T20:14:56Z
2026-09-04 08:19:54,16.7,10.1,989.7,WNW,285,6.4,13,65,0.0,,,0.0,216,0,n/a,2026-09-03T20:19:54Z
2026-09-04 08:24:59,17.1,10,989.7,WNW,287,6.9,17.7,63,0.0,,,0.0,239,0,n/a,2026-09-03T20:24:59Z
2026-09-04 08:29:58,17.4,9.1,989.7,West,279,13.2,27.8,58.2,0.0,,,0.0,171,0.5,n/a,2026-09-03T20:29:58Z
2026-09-04 08:34:57,17.7,8.8,989.7,WNW,282,10.9,22.5,56.1,0.0,,,0.0,267,0.5,n/a,2026-09-03T20:34:57Z
2026-09-04 08:39:57,17.9,8.7,989.9,West,279,11.9,25.7,54.8,0.0,,,0.0,287,0.5,n/a,2026-09-03T20:39:57Z
2026-09-04 08:44:57,18.2,8.1,990.2,West,278,14.1,29.6,51.6,0.0,,,0.0,301,0.6,n/a,2026-09-03T20:44:57Z
2026-09-04 08:49:58,18.5,7.9,990.6,West,274,13.2,30.6,50.3,0.0,,,0.0,315,0.6,n/a,2026-09-03T20:49:58Z
2026-09-04 08:54:58,18.5,6.8,990.8,West,279,16,32.2,46.4,0.0,,,0.0,330,0.7,n/a,2026-09-03T20:54:58Z
2026-09-04 08:59:58,18.5,5.8,991.1,WNW,282,21,62.9,43.4,0.0,,,0.0,341,0.7,n/a,2026-09-03T20:59:58Z
2026-09-04 09:04:55,18,4.9,991.5,West,274,23.9,51.8,41.8,0.0,,,0.0,353,0.8,n/a,2026-09-03T21:04:55Z
2026-09-04 09:09:57,17.4,4.6,991.8,West,276,25.7,48.1,42.9,0.0,,,0.0,369,0.9,n/a,2026-09-03T21:09:57Z
2026-09-04 09:14:58,16.9,4.8,992.0,West,266,24.6,46.7,44.7,0.0,,,0.0,385,0.9,n/a,2026-09-03T21:14:58Z
2026-09-04 09:19:57,16.6,5,991.8,West,281,20.3,42.6,46.3,0.0,,,0.0,394,1,n/a,2026-09-03T21:19:57Z
2026-09-04 09:24:56,16.4,5.1,991.7,West,271,21.9,38.9,47.3,0.0,,,0.0,408,1,n/a,2026-09-03T21:24:56Z
2026-09-04 09:29:55,16.3,5.3,991.4,West,276,19.1,33.3,48.2,0.0,,,0.0,425,1.1,n/a,2026-09-03T21:29:55Z
2026-09-04 09:34:55,16.4,5.3,991.1,West,276,17.2,31.5,48,0.0,,,0.0,438,1.2,n/a,2026-09-03T21:34:55Z
2026-09-04 09:39:58,16.5,5.4,991.1,West,281,16.5,38.9,48,0.0,,,0.0,450,1.2,n/a,2026-09-03T21:39:58Z
2026-09-04 09:44:58,16.6,5.2,991.0,West,277,16.7,35.4,46.9,0.0,,,0.0,462,1.3,n/a,2026-09-03T21:44:58Z
2026-09-04 09:49:56,16.8,5.2,990.9,West,277,18.6,48.3,46.2,0.0,,,0.0,476,1.3,n/a,2026-09-03T21:49:56Z
2026-09-04 09:54:56,17,4.5,991.1,West,277,21,48.1,43.4,0.0,,,0.0,483,1.4,n/a,2026-09-03T21:54:56Z
2026-09-04 09:59:55,17.3,4,991.2,West,273,18.4,40.7,41.2,0.0,,,0.0,492,1.4,n/a,2026-09-03T21:59:55Z
2026-09-04 10:04:55,17.5,4.2,991.5,West,272,14.6,32.2,41.3,0.0,,,0.0,504,1.5,n/a,2026-09-03T22:04:55Z
2026-09-04 10:09:55,17.6,3.5,991.3,West,268,19.5,33.8,39.2,0.0,,,0.0,515,1.6,n/a,2026-09-03T22:09:55Z
2026-09-04 10:14:56,17.6,3.6,991.8,West,269,16.8,35.4,39.3,0.0,,,0.0,526,1.7,n/a,2026-09-03T22:14:56Z
2026-09-04 10:19:55,17.7,3.3,991.8,West,267,19.2,40.7,38.2,0.0,,,0.0,534,1.7,n/a,2026-09-03T22:19:55Z
2026-09-04 10:24:56,17.8,3.2,991.9,West,271,17.1,38.9,37.9,0.0,,,0.0,543,1.8,n/a,2026-09-03T22:24:56Z
2026-09-04 10:29:55,17.9,3.6,991.8,West,272,14.8,27.8,38.7,0.0,,,0.0,552,1.9,n/a,2026-09-03T22:29:55Z
2026-09-04 10:34:55,18,4.1,991.8,West,273,13.7,30.6,39.8,0.0,,,0.0,561,1.9,n/a,2026-09-03T22:34:55Z
2026-09-04 10:39:57,18.1,3.9,991.6,West,273,14.2,31.5,38.8,0.0,,,0.0,571,2,n/a,2026-09-03T22:39:57Z
2026-09-04 10:44:56,18.2,4.1,991.7,West,272,13.9,33.8,39.2,0.0,,,0.0,582,2.1,n/a,2026-09-03T22:44:56Z
2026-09-04 10:49:55,18.2,4.1,992.1,West,272,13.2,25.9,39.2,0.0,,,0.0,587,2.1,n/a,2026-09-03T22:49:55Z
2026-09-04 10:54:55,18.2,4.1,992.2,West,267,16.2,32.2,39.2,0.0,,,0.0,592,2.2,n/a,2026-09-03T22:54:55Z
2026-09-04 10:59:54,18.1,4.3,992.2,West,269,14,35.4,40,0.0,,,0.0,603,2.3,n/a,2026-09-03T22:59:54Z
2026-09-04 11:04:56,18.2,4.1,992.4,West,281,14.4,31.5,39.3,0.0,,,0.0,606,2.3,n/a,2026-09-03T23:04:56Z
2026-09-04 11:09:54,18.3,3.9,992.4,West,267,18.7,45.1,38.5,0.0,,,0.0,615,2.4,n/a,2026-09-03T23:09:54Z
2026-09-04 11:14:59,18.1,3.8,992.5,West,275,17.7,29,38.5,0.0,,,0.0,621,2.4,n/a,2026-09-03T23:14:59Z
2026-09-04 11:19:56,18.1,4.1,992.5,West,272,16.2,30.6,39.6,0.0,,,0.0,624,2.5,n/a,2026-09-03T23:19:56Z
2026-09-04 11:24:55,18.1,4.5,992.7,West,270,16.2,31.5,40.5,0.0,,,0.0,628,2.5,n/a,2026-09-03T23:24:55Z
2026-09-04 11:29:59,18.2,4.8,992.7,West,269,14,38.6,41.2,0.0,,,0.0,633,2.6,n/a,2026-09-03T23:29:59Z
2026-09-04 11:34:58,18.3,4.5,992.7,West,269,17,40.2,40,0.0,,,0.0,638,2.6,n/a,2026-09-03T23:34:58Z
2026-09-04 11:39:56,18.3,4.4,992.8,West,270,13.5,40.7,39.8,0.0,,,0.0,642,2.7,n/a,2026-09-03T23:39:56Z
2026-09-04 11:44:58,18.4,4.7,992.7,West,277,15.4,32.2,40.2,0.0,,,0.0,647,2.7,n/a,2026-09-03T23:44:58Z
2026-09-04 11:49:59,18.4,4.5,992.9,West,278,14.6,29.6,39.7,0.0,,,0.0,647,2.7,n/a,2026-09-03T23:49:59Z
2026-09-04 11:54:59,18.6,4.5,993.0,West,271,13.4,24.1,39.4,0.0,,,0.0,652,2.8,n/a,2026-09-03T23:54:59Z
2026-09-04 11:59:59,18.8,4.1,993.0,West,269,13.3,29.6,37.9,0.0,,,0.0,656,2.8,n/a,2026-09-03T23:59:59Z
2026-09-04 12:04:54,18.9,3.1,993.1,West,279,16.7,40.7,35.2,0.0,,,0.0,657,2.8,n/a,2026-09-04T00:04:54Z
2026-09-04 12:09:58,19,2.8,993.2,West,277,14.1,25.9,34.2,0.0,,,0.0,656,2.8,n/a,2026-09-04T00:09:58Z
2026-09-04 12:14:59,18.9,3.9,993.3,West,272,16.1,30.6,37,0.0,,,0.0,656,2.8,n/a,2026-09-04T00:14:59Z
2026-09-04 12:19:57,18.5,4.2,993.3,West,276,14.3,31.5,38.7,0.0,,,0.0,656,2.8,n/a,2026-09-04T00:19:57Z
2026-09-04 12:24:57,18.5,4.4,993.5,West,273,13.3,27.8,39.5,0.0,,,0.0,657,2.9,n/a,2026-09-04T00:24:57Z
2026-09-04 12:29:57,18.5,4.6,993.5,West,274,13.8,25.9,39.7,0.0,,,0.0,656,2.9,n/a,2026-09-04T00:29:57Z
2026-09-04 12:34:56,18.5,4.1,993.6,West,274,14.3,25.9,38.5,0.0,,,0.0,657,2.9,n/a,2026-09-04T00:34:56Z
2026-09-04 12:39:59,18.5,4.4,993.6,West,279,14,25.9,39.3,0.0,,,0.0,656,2.9,n/a,2026-09-04T00:39:59Z
2026-09-04 12:44:59,18.6,4.3,993.6,West,281,11.5,25.9,38.7,0.0,,,0.0,654,2.9,n/a,2026-09-04T00:44:59Z
2026-09-04 12:49:59,18.7,4.1,993.6,West,275,11.9,24.1,38.2,0.0,,,0.0,652,2.8,n/a,2026-09-04T00:49:59Z
2026-09-04 12:54:57,18.8,3.7,993.6,West,269,14.3,24.1,36.7,0.0,,,0.0,649,2.8,n/a,2026-09-04T00:54:57Z
2026-09-04 12:59:55,18.8,3,993.5,West,278,17.1,33.8,35,0.0,,,0.0,649,2.8,n/a,2026-09-04T00:59:55Z
2026-09-04 13:04:56,18.7,3.1,993.6,West,269,15.2,31.5,35.3,0.0,,,0.0,647,2.8,n/a,2026-09-04T01:04:56Z
2026-09-04 13:09:54,18.8,3.1,993.7,West,271,16.7,29.6,35.3,0.0,,,0.0,642,2.7,n/a,2026-09-04T01:09:54Z
2026-09-04 13:14:55,18.7,3,993.8,West,266,15.1,27.8,35.3,0.0,,,0.0,643,2.7,n/a,2026-09-04T01:14:55Z
2026-09-04 13:19:54,18.6,3.1,993.9,West,277,16.5,32.2,35.7,0.0,,,0.0,642,2.7,n/a,2026-09-04T01:19:54Z
2026-09-04 13:24:59,18.8,3.8,993.9,West,273,12.6,24.1,37,0.0,,,0.0,638,2.6,n/a,2026-09-04T01:24:59Z
2026-09-04 13:29:57,18.9,4,994.1,West,273,14.5,29.6,37.4,0.0,,,0.0,656,2.6,n/a,2026-09-04T01:29:57Z
2026-09-04 13:34:58,18.8,4.4,994.3,West,273,13.2,27.8,38.8,0.0,,,0.0,701,2.6,n/a,2026-09-04T01:34:58Z
2026-09-04 13:39:59,18.5,3.8,994.5,West,270,16.1,31.5,37.7,0.0,,,0.0,659,2.6,n/a,2026-09-04T01:39:59Z
2026-09-04 13:44:54,18.2,3.5,994.4,West,273,16.9,35.4,37.7,0.0,,,0.0,664,2.5,n/a,2026-09-04T01:44:54Z
2026-09-04 13:49:59,18,3.4,994.2,West,270,17.5,33.8,38,0.0,,,0.0,719,2.6,n/a,2026-09-04T01:49:59Z
2026-09-04 13:54:59,18.1,4.1,994.1,West,273,15.8,29,39.5,0.0,,,0.0,712,2.6,n/a,2026-09-04T01:54:59Z
2026-09-04 13:59:58,17.9,3.6,994.1,West,274,19.3,38.9,38.6,0.0,,,0.0,515,2.3,n/a,2026-09-04T01:59:58Z
2026-09-04 14:04:57,17.2,4.1,994.5,West,275,21.5,43.5,41.6,0.0,,,0.0,729,2.6,n/a,2026-09-04T02:04:57Z
2026-09-04 14:09:57,16.9,4.3,994.7,West,278,18.6,42.6,43.2,0.0,,,0.0,606,2.3,n/a,2026-09-04T02:09:57Z
2026-09-04 14:14:58,16.8,4.7,994.9,West,276,15.7,29.6,44.5,0.0,,,0.0,577,2.2,n/a,2026-09-04T02:14:58Z
2026-09-04 14:19:59,17,5.1,995.1,West,273,14.5,29.6,45.3,0.0,,,0.0,566,2.1,n/a,2026-09-04T02:19:59Z
2026-09-04 14:24:59,17,4.8,995.1,West,279,14.3,29.6,44.5,0.0,,,0.0,559,2,n/a,2026-09-04T02:24:59Z
2026-09-04 14:29:59,16.9,4.7,995.4,West,276,15.6,27.8,44.7,0.0,,,0.0,552,2,n/a,2026-09-04T02:29:59Z
2026-09-04 14:34:59,16.7,4.7,995.4,West,269,17.9,31.5,45.2,0.0,,,0.0,541,1.9,n/a,2026-09-04T02:34:59Z
2026-09-04 14:39:54,16.4,4.5,995.6,West,279,15.7,31.5,45.4,0.0,,,0.0,533,1.8,n/a,2026-09-04T02:39:54Z
2026-09-04 14:44:56,16.4,4.9,995.7,West,269,12.5,27.8,46.7,0.0,,,0.0,524,1.7,n/a,2026-09-04T02:44:56Z
2026-09-04 14:49:57,16.5,5.1,995.7,West,275,14.2,29.6,46.8,0.0,,,0.0,515,1.7,n/a,2026-09-04T02:49:57Z
2026-09-04 14:54:56,16.6,5.1,995.8,West,279,17.2,32.2,46.7,0.0,,,0.0,506,1.6,n/a,2026-09-04T02:54:56Z
2026-09-04 14:59:55,16.5,4.7,996.0,West,274,15.4,29.6,45.7,0.0,,,0.0,512,1.6,n/a,2026-09-04T02:59:55Z
2026-09-04 15:04:54,16.5,5,996.1,West,277,14.5,32.2,46.6,0.0,,,0.0,483,1.5,n/a,2026-09-04T03:04:54Z
2026-09-04 15:09:58,16.6,4.8,996.2,West,272,14,25.9,45.9,0.0,,,0.0,475,1.4,n/a,2026-09-04T03:09:58Z
2026-09-04 15:14:59,16.6,4.9,996.4,West,274,10.8,20.9,46.1,0.0,,,0.0,461,1.3,n/a,2026-09-04T03:14:59Z
2026-09-04 15:19:58,16.6,5.1,996.5,West,280,10.9,20.9,46.4,0.0,,,0.0,450,1.3,n/a,2026-09-04T03:19:58Z
2026-09-04 15:24:58,16.6,5.1,996.5,West,278,12.7,22.5,46.5,0.0,,,0.0,441,1.2,n/a,2026-09-04T03:24:58Z
2026-09-04 15:29:57,16.6,5.2,996.6,WNW,284,12.1,22.5,47.2,0.0,,,0.0,427,1.2,n/a,2026-09-04T03:29:57Z
2026-09-04 15:34:57,16.6,5.2,996.6,West,279,10.2,20.9,46.8,0.0,,,0.0,415,1.1,n/a,2026-09-04T03:34:57Z
2026-09-04 15:39:58,16.6,5,996.7,West,277,12.2,25.9,46,0.0,,,0.0,401,1,n/a,2026-09-04T03:39:58Z
2026-09-04 15:44:59,16.6,4.9,996.8,West,277,10.1,24.1,46.1,0.0,,,0.0,387,1,n/a,2026-09-04T03:44:59Z
2026-09-04 15:49:59,16.7,5.5,996.9,West,279,7.5,16.7,47.4,0.0,,,0.0,376,0.9,n/a,2026-09-04T03:49:59Z
2026-09-04 15:54:58,16.9,5.3,997.0,West,280,10.2,19.3,46.3,0.0,,,0.0,367,0.8,n/a,2026-09-04T03:54:58Z
2026-09-04 15:59:58,17,5.4,997.1,West,276,7.9,18.5,46.5,0.0,,,0.0,371,0.7,n/a,2026-09-04T03:59:58Z
2026-09-04 16:04:58,17.1,5.4,997.3,West,279,7.5,14.5,46.2,0.0,,,0.0,376,0.7,n/a,2026-09-04T04:04:58Z
2026-09-04 16:09:57,17.2,5.4,997.3,West,280,6.8,14.8,45.8,0.0,,,0.0,376,0.6,n/a,2026-09-04T04:09:57Z
2026-09-04 16:14:57,17.2,5.4,997.3,WNW,284,9.4,20.9,45.8,0.0,,,0.0,313,0.6,n/a,2026-09-04T04:14:57Z
2026-09-04 16:19:59,17.1,5,997.2,West,268,12.5,32.2,44.7,0.0,,,0.0,302,0.5,n/a,2026-09-04T04:19:59Z
2026-09-04 16:24:58,17,3.9,997.3,West,268,12.2,20.9,41.6,0.0,,,0.0,276,0.5,n/a,2026-09-04T04:24:58Z
2026-09-04 16:29:59,16.9,3.3,997.4,West,271,14.8,27.8,40.2,0.0,,,0.0,265,0.5,n/a,2026-09-04T04:29:59Z
2026-09-04 16:34:56,16.9,3.8,997.4,West,272,12.7,24.1,41.9,0.0,,,0.0,250,0,n/a,2026-09-04T04:34:56Z
2026-09-04 16:39:58,16.9,4.5,997.4,West,276,9.6,20.9,43.6,0.0,,,0.0,225,0,n/a,2026-09-04T04:39:58Z
2026-09-04 16:44:57,16.8,4,997.4,West,278,11.3,27.8,42.5,0.0,,,0.0,204,0,n/a,2026-09-04T04:44:57Z
2026-09-04 16:49:59,16.7,3.6,997.6,West,269,12.6,29.6,41.8,0.0,,,0.0,185,0,n/a,2026-09-04T04:49:59Z
2026-09-04 16:54:54,16.5,3.7,997.7,West,273,11.4,20.4,42.6,0.0,,,0.0,179,0,n/a,2026-09-04T04:54:54Z
2026-09-04 16:59:55,16.3,3.7,997.7,West,274,12,22.5,43,0.0,,,0.0,179,0,n/a,2026-09-04T04:59:55Z
2026-09-04 17:04:55,16.2,3.4,997.7,West,274,9.3,29.6,42.6,0.0,,,0.0,163,0,n/a,2026-09-04T05:04:55Z
2026-09-04 17:09:53,16.1,3.3,997.8,West,270,11.2,20.9,42.6,0.0,,,0.0,125,0,n/a,2026-09-04T05:09:53Z
2026-09-04 17:14:59,15.9,3.5,997.7,West,275,8.7,18.5,43.5,0.0,,,0.0,118,0,n/a,2026-09-04T05:14:59Z
2026-09-04 17:19:59,15.7,3.5,997.9,West,280,12.7,25.9,44,0.0,,,0.0,104,0,n/a,2026-09-04T05:19:59Z
2026-09-04 17:24:58,15.5,3.6,998.0,West,274,7.7,20.9,45,0.0,,,0.0,79,0,n/a,2026-09-04T05:24:58Z
2026-09-04 17:29:57,15.3,3.6,998.0,West,275,7.7,14.8,45.4,0.0,,,0.0,63,0,n/a,2026-09-04T05:29:57Z
2026-09-04 17:34:58,15.1,3.4,998.2,West,280,10.3,24.1,45.6,0.0,,,0.0,46,0,n/a,2026-09-04T05:34:58Z
2026-09-04 17:39:57,14.8,3.3,998.4,West,280,9.5,18.5,46.2,0.0,,,0.0,30,0,n/a,2026-09-04T05:39:57Z
2026-09-04 17:44:57,14.5,3.3,998.5,West,280,9.1,20.9,47,0.0,,,0.0,16,0,n/a,2026-09-04T05:44:57Z
2026-09-04 17:49:56,14.2,3.2,998.7,WNW,283,6.3,20.4,47.6,0.0,,,0.0,11,0,n/a,2026-09-04T05:49:56Z
2026-09-04 17:54:55,14,3.2,998.9,WNW,288,3.1,9.3,48,0.0,,,0.0,9,0,n/a,2026-09-04T05:54:55Z
2026-09-04 17:59:55,13.9,3.1,999.0,WNW,302,3.7,8,48.3,0.0,,,0.0,7,0,n/a,2026-09-04T05:59:55Z
2026-09-04 18:04:55,13.7,3.2,999.1,WNW,302,2.8,6.4,49,0.0,,,0.0,5,0,n/a,2026-09-04T06:04:55Z
2026-09-04 18:09:55,13.5,3,999.2,West,274,2.8,6.4,49,0.0,,,0.0,0,0,n/a,2026-09-04T06:09:55Z
2026-09-04 18:14:56,13.4,2.9,999.2,WNW,291,2.8,8,49,0.0,,,0.0,0,0,n/a,2026-09-04T06:14:56Z
2026-09-04 18:19:56,13.3,2.9,999.4,West,281,2.9,9.7,49.3,0.0,,,0.0,0,0,n/a,2026-09-04T06:19:56Z
2026-09-04 18:24:56,13.1,2.9,999.4,West,278,5.6,14.8,49.8,0.0,,,0.0,0,0,n/a,2026-09-04T06:24:56Z
2026-09-04 18:29:56,13,2.8,999.5,West,281,5.3,12.9,50,0.0,,,0.0,0,0,n/a,2026-09-04T06:29:56Z
2026-09-04 18:34:56,12.9,2.8,999.7,West,280,4.8,14.5,50,0.0,,,0.0,0,0,n/a,2026-09-04T06:34:56Z
2026-09-04 18:39:57,12.8,2.7,999.8,WNW,288,6,16.1,50,0.0,,,0.0,0,0,n/a,2026-09-04T06:39:57Z
2026-09-04 18:44:57,12.7,2.6,999.8,West,275,5.2,16.7,50,0.0,,,0.0,0,0,n/a,2026-09-04T06:44:57Z
2026-09-04 18:49:57,12.6,2.3,1000.0,WNW,283,6.7,17.7,49.3,0.0,,,0.0,0,0,n/a,2026-09-04T06:49:57Z
2026-09-04 18:54:56,12.6,2.2,1000.0,WNW,282,8.3,18.5,49,0.0,,,0.0,0,0,n/a,2026-09-04T06:54:56Z
2026-09-04 18:59:56,12.6,2.1,1000.1,WNW,283,6.8,13,49,0.0,,,0.0,0,0,n/a,2026-09-04T06:59:56Z
2026-09-04 19:04:56,12.5,2.1,1000.1,WNW,284,6.2,13,49,0.0,,,0.0,0,0,n/a,2026-09-04T07:04:56Z
2026-09-04 19:09:59,12.5,2,1000.0,WNW,289,6.3,13,49,0.0,,,0.0,0,0,n/a,2026-09-04T07:09:59Z
2026-09-04 19:14:54,12.4,2.2,1000.1,WNW,283,5.3,13,49.9,0.0,,,0.0,0,0,n/a,2026-09-04T07:14:54Z
2026-09-04 19:19:55,12.3,2.2,1000.2,WNW,292,4.4,13,50,0.0,,,0.0,0,0,n/a,2026-09-04T07:19:55Z
2026-09-04 19:24:54,12.2,2.2,1000.4,WNW,282,4.2,11.3,50.3,0.0,,,0.0,0,0,n/a,2026-09-04T07:24:54Z
2026-09-04 19:29:59,12.1,2.3,1000.4,WNW,285,4.3,13,51,0.0,,,0.0,0,0,n/a,2026-09-04T07:29:59Z
2026-09-04 19:34:59,12,2.2,1000.6,WNW,290,3.9,11.3,51,0.0,,,0.0,0,0,n/a,2026-09-04T07:34:59Z
2026-09-04 19:39:55,11.9,2.1,1000.6,WNW,301,2.4,5.6,51.2,0.0,,,0.0,0,0,n/a,2026-09-04T07:39:55Z
2026-09-04 19:44:50,11.8,2.2,1000.7,WNW,301,1.6,5.6,51.9,0.0,,,0.0,0,0,n/a,2026-09-04T07:44:50Z